Temperature
18 17 17 17 16 16 16 16 16 16 15 15 15 15 15 15 14 14 14 14 14 14 14 14 14 14 14 14 14 14 13 13 13 13 13 13 14 14 13 13 13 13 12
18 17 17 17 16 16 16 16 16 16 16 15 15 15 15 15 15 14 14 14 14 14 14 14 14 14 14 14 14 13 13 13 13 13 12 12 13 13 13 13 13 12 12
17 17 17 17 16 16 16 16 16 16 15 15 15 15 14 14 14 14 14 14 14 14 14 14 14 14 14 14 13 13 13 13 13 12 12 12 12 12 12 12 12 12 12
17 17 17 17 16 16 16 16 16 16 15 15 15 15 15 15 15 14 14 14 14 14 14 14 14 14 14 13 13 13 13 13 12 12 12 12 12 11 11 11 11 11 11
17 17 17 16 16 16 16 16 16 16 15 15 15 15 15 15 14 14 14 14 14 14 14 14 14 13 13 13 13 13 13 12 12 12 11 11 11 11 11 11 11 10 10
17 16 16 16 16 16 16 16 15 15 15 15 15 15 15 14 14 14 14 14 14 14 14 14 14 13 13 13 13 13 12 12 12 11 11 11 10 10 10 10 10 10 10
16 16 16 16 15 15 15 15 15 15 15 15 15 15 14 14 14 14 14 14 13 14 14 13 13 13 13 13 12 12 12 12 11 11 11 10 10 10 10 10 10 9 9
16 16 15 15 15 15 15 15 15 15 15 15 15 15 14 14 14 14 14 13 13 13 13 13 13 13 12 12 12 12 11 11 11 11 10 10 9 9 9 9 9 9 8
15 15 15 14 14 14 14 14 14 14 14 14 14 14 14 14 14 14 13 13 13 13 12 12 12 12 12 11 11 11 11 11 10 10 9 9 9 9 9 8 8 8 8
14 14 14 13 13 13 13 13 13 13 14 14 14 13 13 13 13 13 13 13 12 12 12 12 11 11 11 11 10 10 10 10 9 9 9 8 8 8 8 8 7 7 7
13 13 12 12 12 12 12 12 12 12 12 13 13 13 13 13 12 12 12 12 12 11 11 11 10 10 10 10 9 9 9 9 8 8 8 7 7 7 7 7 7 7 7
12 12 11 11 11 11 11 11 11 11 12 12 12 12 12 12 12 11 11 11 11 10 10 10 9 9 9 9 9 8 8 8 7 7 7 7 7 7 7 7 6 6 6
11 11 10 10 10 10 10 10 10 10 11 11 11 11 11 11 11 11 10 10 10 9 9 9 9 8 8 8 8 7 7 7 6 6 6 6 6 6 6 6 6 6 5
10 10 10 9 9 9 9 9 9 10 10 10 10 10 10 10 10 9 9 9 9 9 8 8 8 7 7 7 7 6 6 6 5 5 5 5 5 5 5 5 5 5 5
10 10 9 9 9 9 8 9 9 9 9 9 9 9 9 9 9 9 8 8 8 8 7 7 7 6 6 6 5 5 5 5 5 4 4 4 4 4 4 4 4 4 4
10 10 9 9 9 9 9 9 9 9 9 9 9 9 9 8 8 8 7 7 7 7 6 6 6 5 5 5 4 4 4 4 4 4 3 3 3 3 3 3 3 3 3
10 10 9 9 9 9 9 9 9 9 9 9 8 8 8 8 7 7 6 6 6 5 5 5 4 4 4 4 3 3 3 3 3 3 3 3 3 3 3 3 3 2 2
9 10 9 9 9 9 9 9 9 9 8 8 8 8 7 7 6 6 6 5 5 4 4 4 4 3 3 2 2 2 2 2 2 2 2 2 2 2 2 2 2 2 2
9 9 9 9 9 8 8 8 8 8 8 8 8 7 7 6 6 5 5 4 4 3 3 3 2 2 2 2 2 2 1 1 1 1 1 1 1 1 1 1 1 1 1
8 8 8 8 8 8 8 8 8 8 8 8 7 7 6 6 5 5 4 3 3 3 2 2 2 1 1 1 1 1 1 1 1 1 0 0 1 0 0 0 0 1 1
7 8 8 8 8 8 8 8 8 8 7 7 6 6 6 5 4 4 3 3 2 2 2 1 1 1 1 1 0 0 0 0 0 0 0 0 0 -0 -0 -0 -0 -0 -0
7 7 7 7 7 7 7 7 7 7 7 6 6 6 5 5 4 3 3 2 2 1 1 1 1 0 0 0 0 -0 -0 -0 -0 -0 -0 -0 -0 -0 -1 -1 -1 -1 -1
6 6 6 6 6 6 6 7 7 6 6 6 6 5 4 4 3 3 2 2 1 1 0 0 0 0 0 -0 -0 -0 -0 -1 -0 -0 -1 -1 -1 -1 -1 -1 -1 -1 -1
5 5 6 6 6 6 6 6 6 6 6 5 5 4 4 3 3 2 2 1 1 0 0 0 -0 -0 -0 -0 -0 -1 -1 -1 -1 -1 -1 -1 -1 -1 -1 -1 -1 -1 -1
5 5 5 5 5 5 5 5 5 5 5 4 4 4 3 2 2 2 1 1 0 0 -0 -0 -0 -0 -0 -0 -1 -1 -1 -1 -1 -1 -1 -1 -1 -1 -1 -1 -1 -1 -2
4 4 4 4 4 4 4 4 4 4 4 4 3 3 2 2 1 1 1 0 0 -0 -0 -1 -1 -1 -1 -1 -1 -1 -1 -1 -2 -2 -1 -1 -1 -1 -1 -1 -1 -2 -2
Wind_Speed
8 8 9 8 7 7 8 9 9 9 7 6 6 5 5 4 3 4 7 9 9 10 8 5 5 4 3 4 4 4 4 4 2 2 3 5 7 7 5 4 3 2 2
8 8 9 8 8 8 8 8 9 9 9 7 6 5 5 4 4 4 6 7 7 7 7 5 3 3 3 4 4 3 3 3 3 3 2 3 4 3 4 2 2 1 2
10 10 9 9 8 8 8 8 8 8 8 8 6 5 4 3 3 4 4 5 7 7 6 5 4 3 3 4 4 3 4 4 3 4 4 3 3 2 2 0 2 2 2
9 9 10 10 9 7 7 7 7 7 8 8 8 7 6 5 5 4 4 4 5 4 4 4 3 2 2 2 3 3 3 4 4 3 4 4 3 2 2 1 0 2 2
9 8 9 10 9 8 7 6 7 7 7 8 9 8 6 5 4 4 5 5 4 5 4 3 2 1 1 2 2 2 3 3 4 3 2 3 3 4 4 3 2 0 1
10 8 8 9 8 7 6 6 6 6 6 7 7 7 8 7 6 6 5 5 4 3 4 3 1 1 1 1 1 2 3 3 4 3 3 2 3 3 4 5 3 2 1
10 9 9 9 9 9 7 6 6 6 6 6 6 6 6 7 7 6 5 5 4 3 3 2 2 1 1 1 1 2 2 3 3 3 3 3 3 2 3 3 3 2 2
6 8 9 9 10 10 9 8 7 7 6 6 6 5 5 4 4 5 4 4 3 3 3 3 2 2 0 1 1 1 2 1 2 3 2 2 2 1 1 2 2 2 2
6 6 7 8 9 10 9 8 8 7 7 6 6 6 5 5 5 5 5 4 4 4 4 3 2 2 1 1 0 1 1 0 0 1 1 1 0 0 0 0 2 3 4
4 6 6 6 7 8 8 8 8 7 7 6 6 6 6 6 6 5 5 5 4 4 3 3 3 2 1 1 0 0 1 1 1 0 1 1 0 1 1 0 0 1 3
3 4 5 6 7 7 8 7 7 7 7 7 7 7 6 6 6 5 5 5 4 4 3 3 3 2 2 1 1 1 1 2 2 1 2 2 2 1 1 1 1 0 1
4 5 6 7 7 7 7 7 7 7 7 7 7 7 7 7 6 6 6 5 5 4 4 3 3 3 3 2 2 2 2 2 2 3 3 2 2 3 2 2 2 1 1
4 5 6 7 7 7 7 8 8 8 7 8 8 7 7 6 6 6 6 5 5 4 4 4 3 3 3 3 3 3 3 3 3 3 3 3 3 3 2 2 2 1 2
5 5 6 6 7 7 8 8 8 8 8 8 8 8 7 7 7 6 6 5 5 4 4 4 4 4 3 3 3 3 4 5 5 4 4 4 3 3 3 2 2 2 3
4 6 6 6 7 8 8 8 8 8 8 8 8 7 7 7 7 6 5 5 4 4 4 4 4 3 3 2 3 3 5 5 5 5 5 5 6 6 4 3 3 3 3
4 5 6 7 8 9 9 9 9 8 8 8 8 8 8 7 7 6 5 5 4 4 4 3 3 3 3 4 4 5 4 5 5 5 5 5 6 7 9 9 8 6 4
4 5 6 6 7 8 9 10 9 9 9 8 8 8 8 7 7 6 6 5 4 4 4 3 3 4 4 5 6 6 5 5 5 5 4 4 5 6 4 7 9 9 9
3 3 4 5 6 7 8 9 9 9 9 8 8 8 8 8 7 6 6 5 4 4 3 3 3 4 5 6 7 7 5 4 4 4 4 5 4 3 4 4 5 5 6
1 1 2 3 5 7 9 10 9 9 9 8 9 9 9 8 8 7 6 5 4 4 3 3 4 4 5 7 7 6 4 4 4 3 3 4 4 5 5 4 4 4 3
3 2 2 3 5 6 8 9 9 9 9 9 9 8 9 9 8 7 6 5 5 4 4 4 4 4 5 7 7 6 3 4 3 3 3 3 5 5 4 3 4 3 3
4 3 3 3 4 5 7 8 8 8 8 8 8 8 8 8 8 7 6 6 5 5 5 5 4 4 5 7 8 7 3 4 4 3 3 3 5 5 4 3 3 3 4
5 5 4 4 3 4 6 6 6 6 7 8 8 8 8 7 7 7 6 6 6 6 5 5 4 3 4 6 7 8 6 5 4 3 3 4 6 5 5 3 3 4 3
5 4 4 4 4 3 4 5 5 6 7 8 7 7 7 7 7 7 7 6 6 5 5 5 5 4 4 5 9 10 9 8 4 4 6 6 7 6 4 5 5 3 2
4 4 4 4 3 3 3 4 5 6 7 7 7 7 7 7 7 6 6 6 7 6 6 6 6 5 4 5 5 5 5 7 5 3 5 7 7 5 5 5 4 3 3
3 3 3 3 2 2 2 3 4 6 6 6 6 7 6 7 6 6 6 7 7 7 7 7 6 6 6 8 12 8 6 5 5 5 3 3 3 4 3 3 4 4 4
2 3 3 2 2 2 2 3 3 4 5 5 6 5 5 5 5 6 5 7 7 10 12 10 9 7 9 10 13 14 13 13 12 7 4 5 5 6 6 5 5 5 5
Wind_Direction
198 176 165 164 164 169 169 169 171 174 169 166 171 172 181 172 164 164 172 179 181 185 186 185 200 197 187 197 208 208 220 231 230 259 280 267 250 241 233 220 219 231 213
198 177 165 162 166 172 175 170 173 173 170 171 173 171 168 169 170 164 177 182 181 183 188 192 193 192 193 207 217 212 209 223 201 193 244 293 298 267 229 189 172 141 92
200 182 170 166 167 172 175 174 173 171 169 164 157 151 151 154 167 176 179 183 181 183 187 195 199 200 198 209 216 211 205 223 229 204 201 227 255 319 333 171 122 113 94
210 187 172 170 172 174 168 171 170 166 165 160 161 163 167 177 183 174 173 162 164 164 169 179 188 194 205 218 226 220 223 220 235 239 228 224 222 236 285 312 86 98 89
205 189 174 169 168 164 162 167 165 167 167 166 168 173 172 175 164 154 156 161 155 149 151 162 175 191 202 218 229 238 240 229 228 225 228 243 247 227 228 249 241 86 62
198 187 169 157 154 150 151 159 164 167 165 165 168 176 176 167 162 162 164 164 156 150 140 142 141 128 128 216 237 244 247 243 242 237 224 212 220 219 220 234 227 206 149
185 175 166 160 154 152 158 160 161 166 162 161 166 170 168 165 167 164 166 160 155 145 145 142 143 129 162 250 250 242 248 247 246 244 245 236 232 228 216 220 226 208 165
171 172 171 166 163 162 163 165 165 165 160 154 154 141 139 144 143 135 128 130 126 126 124 129 124 118 118 262 262 245 245 245 245 253 254 243 248 248 216 204 196 211 203
180 174 165 164 162 161 163 162 161 159 153 145 134 127 128 127 124 119 114 114 113 121 119 119 118 103 87 43 293 231 221 164 220 250 241 217 215 325 268 218 193 196 211
163 164 160 156 155 154 152 152 153 151 142 138 132 128 126 123 119 117 117 115 109 105 115 123 123 119 110 97 135 139 94 111 100 97 118 106 92 72 41 56 220 203 196
135 136 139 136 134 135 137 139 140 135 132 129 123 119 114 107 106 109 108 107 107 111 111 106 104 100 89 71 88 106 104 118 107 90 106 98 82 84 53 57 85 98 142
118 128 129 131 134 140 145 143 141 136 134 128 122 120 113 109 108 106 101 99 100 97 94 90 89 84 76 64 78 86 85 101 111 102 102 97 86 75 56 69 81 83 90
132 141 144 149 154 154 151 145 140 135 131 129 128 126 123 119 115 109 104 100 96 92 88 87 89 88 81 73 78 94 92 90 90 95 103 102 103 92 75 74 77 70 71
157 161 160 162 159 157 153 148 143 140 138 135 135 132 129 123 117 111 107 103 101 101 95 91 88 85 81 82 85 97 97 91 82 80 83 82 90 103 103 92 87 92 90
179 177 173 170 165 160 154 150 146 144 141 137 135 131 124 117 115 114 111 106 101 101 98 98 99 97 92 93 105 114 117 116 105 88 79 77 82 83 87 88 75 89 104
218 192 183 179 172 168 163 154 152 150 145 142 139 133 129 128 129 129 128 124 118 115 111 113 117 115 108 117 124 123 116 119 118 110 99 94 84 86 85 82 75 77 98
234 205 192 186 177 171 163 160 156 148 147 146 144 143 141 140 141 140 137 136 133 123 121 120 116 117 125 139 135 127 121 121 124 125 120 109 99 86 85 86 78 67 65
244 212 196 186 172 161 154 149 147 149 151 151 151 150 147 148 146 143 143 139 129 129 132 128 125 126 141 147 143 135 122 123 126 128 129 124 118 118 110 98 87 73 57
282 201 176 168 154 149 148 145 148 151 155 160 160 158 156 154 153 154 154 145 140 143 146 141 141 140 146 152 147 139 126 127 125 118 119 128 132 139 131 119 115 102 89
10 42 74 104 129 138 140 146 155 160 170 170 164 159 158 157 159 161 157 150 151 158 155 153 157 158 159 167 165 158 141 145 146 136 128 138 151 157 149 140 144 145 150
22 33 67 94 118 131 138 152 159 172 168 154 151 152 154 156 156 154 153 152 154 158 161 164 172 174 177 180 182 181 162 164 162 167 173 181 176 173 174 159 155 160 146
29 37 59 69 82 115 135 149 159 150 138 140 146 151 152 154 156 154 156 158 160 167 175 178 185 191 184 186 194 195 195 179 164 176 177 181 183 187 189 182 175 158 137
36 44 67 69 66 88 122 142 145 135 137 142 150 153 153 154 159 164 166 168 175 182 185 186 193 197 191 200 208 207 204 203 185 181 185 185 192 197 203 209 204 182 162
33 38 68 82 71 70 93 128 138 142 146 155 160 161 163 164 168 171 175 180 188 191 189 194 199 197 193 198 200 202 207 206 201 188 197 199 204 206 217 222 214 187 192
29 29 48 78 87 89 97 123 138 146 156 164 167 168 172 173 179 185 192 195 200 196 194 198 195 194 205 211 203 193 194 188 189 173 169 182 193 206 213 213 208 202 206
41 39 39 53 74 92 110 123 142 157 164 171 173 176 178 181 183 187 199 211 209 213 213 209 203 209 213 213 212 211 209 207 203 195 194 205 209 213 214 214 213 209 208
Height
1498 1501 1504 1507 1510 1514 1517 1520 1523 1526 1530 1533 1536 1539 1542 1545 1548 1550 1552 1554 1556 1557 1559 1560 1561 1562 1563 1564 1565 1565 1566 1566 1566 1566 1565 1564 1564 1564 1563 1563 1563 1563 1563
1494 1497 1500 1503 1507 1510 1514 1517 1520 1523 1526 1529 1532 1536 1539 1542 1545 1547 1549 1551 1553 1554 1556 1557 1558 1559 1560 1561 1561 1562 1562 1563 1563 1563 1562 1561 1561 1559 1559 1560 1560 1560 1560
1490 1493 1496 1500 1503 1507 1510 1513 1516 1520 1523 1526 1529 1532 1536 1539 1541 1543 1545 1547 1549 1551 1552 1553 1555 1556 1556 1557 1558 1558 1558 1559 1559 1560 1560 1559 1557 1557 1557 1557 1557 1556 1556
1487 1489 1492 1496 1499 1503 1507 1510 1513 1516 1519 1522 1525 1528 1530 1533 1536 1539 1541 1543 1545 1547 1548 1549 1550 1551 1552 1553 1553 1554 1554 1554 1554 1555 1555 1555 1555 1555 1553 1553 1553 1553 1552
1483 1486 1488 1492 1495 1499 1503 1507 1510 1513 1516 1519 1521 1524 1527 1530 1533 1535 1537 1539 1541 1542 1544 1545 1546 1547 1548 1548 1549 1549 1549 1549 1549 1549 1549 1550 1550 1550 1550 1549 1549 1549 1548
1479 1482 1485 1488 1491 1495 1498 1502 1506 1509 1512 1515 1518 1520 1523 1526 1528 1531 1532 1534 1536 1538 1539 1541 1542 1542 1543 1543 1544 1544 1544 1544 1544 1544 1544 1544 1544 1544 1545 1544 1544 1544 1544
1474 1477 1480 1484 1487 1490 1494 1498 1501 1505 1508 1511 1514 1517 1520 1522 1524 1527 1529 1531 1532 1533 1535 1536 1537 1537 1538 1538 1539 1538 1538 1538 1538 1538 1538 1538 1538 1539 1539 1539 1539 1539 1539
1469 1473 1476 1480 1483 1486 1490 1493 1497 1500 1504 1507 1509 1512 1515 1518 1520 1522 1524 1526 1527 1528 1530 1531 1531 1532 1532 1533 1533 1533 1533 1532 1532 1532 1532 1532 1533 1533 1533 1534 1534 1534 1534
1466 1470 1473 1476 1479 1482 1486 1489 1493 1496 1499 1502 1505 1508 1511 1513 1516 1518 1520 1522 1523 1524 1525 1526 1527 1527 1527 1528 1528 1527 1527 1527 1527 1527 1527 1527 1527 1528 1528 1528 1529 1530 1529
1465 1468 1471 1474 1476 1479 1482 1486 1489 1492 1495 1498 1501 1504 1507 1510 1512 1514 1516 1517 1518 1520 1521 1521 1521 1522 1522 1522 1522 1522 1521 1521 1521 1521 1521 1521 1522 1522 1523 1523 1523 1524 1525
1463 1466 1468 1471 1474 1476 1479 1482 1485 1488 1491 1494 1497 1500 1502 1505 1508 1509 1511 1512 1513 1515 1515 1516 1517 1517 1517 1517 1517 1517 1516 1516 1516 1516 1516 1517 1517 1517 1518 1518 1519 1519 1520
1463 1465 1467 1469 1471 1474 1476 1479 1482 1485 1488 1491 1493 1496 1498 1501 1503 1505 1506 1507 1509 1510 1511 1511 1512 1512 1512 1512 1512 1512 1512 1512 1511 1512 1512 1512 1513 1513 1513 1514 1514 1514 1515
1463 1464 1466 1468 1470 1472 1474 1477 1479 1482 1485 1488 1490 1493 1495 1497 1499 1501 1502 1503 1504 1505 1506 1507 1507 1507 1507 1507 1507 1507 1507 1507 1507 1507 1508 1508 1509 1509 1509 1509 1510 1510 1511
1462 1464 1465 1467 1468 1470 1472 1474 1477 1480 1482 1485 1487 1489 1491 1493 1495 1497 1498 1499 1500 1501 1502 1502 1502 1502 1503 1503 1503 1503 1503 1503 1503 1504 1504 1504 1505 1505 1506 1506 1506 1507 1507
1461 1462 1463 1465 1466 1468 1470 1472 1475 1477 1480 1482 1485 1487 1489 1491 1492 1494 1495 1495 1496 1497 1497 1498 1498 1498 1498 1499 1499 1499 1499 1499 1500 1500 1501 1501 1501 1502 1502 1503 1503 1503 1504
1460 1461 1461 1463 1464 1466 1468 1470 1472 1475 1478 1480 1482 1484 1486 1488 1489 1490 1491 1492 1493 1493 1494 1494 1494 1494 1495 1495 1495 1495 1496 1496 1496 1497 1497 1498 1498 1498 1499 1499 1500 1501 1501
1458 1458 1459 1460 1462 1463 1465 1467 1470 1473 1475 1477 1479 1481 1483 1485 1486 1487 1488 1488 1489 1489 1490 1490 1490 1491 1491 1491 1491 1492 1492 1493 1493 1494 1494 1495 1495 1496 1496 1497 1497 1498 1498
1455 1455 1456 1457 1459 1461 1463 1465 1468 1470 1472 1475 1477 1478 1480 1482 1483 1484 1484 1485 1485 1486 1486 1487 1487 1487 1488 1488 1488 1489 1489 1490 1491 1491 1492 1492 1493 1493 1494 1494 1495 1496 1496
1452 1453 1453 1454 1456 1458 1460 1462 1465 1467 1470 1472 1474 1475 1477 1478 1479 1480 1481 1481 1482 1483 1483 1483 1484 1484 1485 1485 1486 1486 1487 1487 1488 1489 1489 1490 1491 1491 1492 1492 1493 1493 1494
1450 1450 1451 1452 1454 1456 1458 1460 1462 1464 1466 1469 1471 1472 1474 1475 1476 1477 1477 1478 1479 1479 1480 1480 1481 1482 1482 1483 1483 1484 1484 1485 1486 1487 1487 1488 1489 1489 1489 1490 1490 1491 1492
1448 1448 1449 1450 1452 1453 1455 1457 1459 1461 1464 1466 1467 1469 1470 1471 1472 1473 1474 1475 1475 1476 1477 1478 1478 1479 1479 1480 1481 1481 1482 1483 1483 1484 1485 1486 1486 1487 1487 1488 1488 1489 1490
1448 1447 1448 1449 1450 1452 1453 1455 1457 1459 1461 1462 1464 1465 1467 1468 1469 1470 1470 1471 1472 1473 1473 1474 1475 1476 1476 1477 1478 1479 1480 1480 1481 1482 1483 1483 1484 1484 1485 1485 1486 1487 1487
1448 1447 1447 1448 1449 1450 1452 1453 1455 1456 1458 1459 1460 1462 1463 1464 1465 1466 1467 1468 1468 1469 1470 1471 1472 1472 1473 1474 1475 1476 1477 1478 1478 1479 1480 1480 1481 1482 1482 1483 1484 1484 1485
1448 1447 1447 1447 1448 1449 1450 1451 1452 1454 1455 1456 1457 1458 1459 1460 1461 1462 1463 1464 1464 1465 1466 1467 1468 1469 1470 1471 1472 1473 1474 1475 1475 1476 1477 1478 1478 1479 1480 1480 1481 1481 1482
1447 1447 1447 1447 1447 1447 1448 1449 1450 1451 1452 1453 1454 1455 1456 1457 1458 1459 1459 1460 1461 1462 1463 1464 1465 1466 1467 1468 1469 1469 1470 1471 1472 1473 1473 1474 1475 1476 1476 1477 1478 1478 1479
1447 1446 1446 1446 1446 1446 1446 1447 1447 1448 1449 1450 1450 1451 1452 1453 1454 1455 1455 1456 1457 1458 1459 1460 1461 1462 1463 1464 1464 1466 1467 1468 1468 1469 1469 1470 1471 1472 1473 1473 1474 1474 1475